Theta_e
332 331 331 330 329 329 331 333 333 335 337 340 341 343 340 338 336 337 336 338 342 345 348 348 348 348 350 350 349 350 352 355 358 358 358 363 363 362 361 361 361 360 360 356
333 332 331 331 331 330 329 329 331 332 334 337 337 336 338 339 338 337 336 336 337 345 349 349 351 350 351 353 352 352 353 355 359 360 360 361 363 362 361 361 358 357 354 354
336 333 331 331 331 331 331 331 330 332 334 335 336 339 339 337 338 338 336 336 335 339 345 350 350 352 352 353 355 355 356 358 359 361 362 363 362 362 360 358 357 356 355 351
334 336 336 333 332 331 332 333 334 334 335 338 337 335 333 333 335 335 336 336 336 339 346 351 352 352 353 353 354 357 359 360 359 361 362 363 362 361 359 358 356 355 353 349
336 336 334 333 333 333 334 335 335 334 336 333 332 332 334 333 333 335 336 334 337 338 351 351 356 355 356 357 357 358 360 359 361 363 363 363 361 360 358 357 354 350 349 346
334 335 337 337 335 332 332 337 338 336 338 334 334 336 337 333 333 333 333 333 336 337 344 357 359 360 359 361 362 362 363 365 365 365 361 363 363 355 355 353 351 348 346 343
334 336 334 334 334 333 337 335 333 332 335 335 338 337 335 332 335 339 342 340 340 344 356 359 360 361 362 364 364 365 366 366 362 356 352 344 344 351 349 349 350 344 340 338
333 335 336 332 332 335 344 336 336 335 334 339 336 337 335 340 345 349 351 352 352 353 356 359 360 361 363 362 364 365 362 350 347 343 344 353 344 343 344 347 342 339 338 337
331 331 335 330 332 331 331 335 341 344 343 341 341 345 347 351 353 353 354 353 355 359 362 363 364 363 363 362 360 359 351 350 352 351 349 349 350 348 345 342 340 337 337 338
331 332 332 330 329 329 330 332 342 342 343 343 341 344 351 353 354 355 358 360 362 362 361 361 359 359 357 355 354 353 354 353 348 345 346 350 348 346 345 343 341 339 338 338
334 334 329 330 327 328 329 329 330 340 341 342 341 348 351 354 356 357 357 357 356 355 355 355 354 353 352 350 348 343 345 347 343 339 340 344 346 344 344 342 340 339 337 336
333 333 335 337 331 330 329 328 328 337 343 342 344 350 353 354 354 354 353 353 352 352 352 351 347 347 346 347 348 340 336 338 341 336 339 342 345 344 341 340 338 339 337 336
328 326 328 332 336 338 337 335 329 338 342 345 350 353 353 349 344 342 340 340 339 338 339 340 342 345 343 341 338 342 344 346 338 344 343 344 344 343 336 337 336 336 334 333
321 322 328 332 334 336 339 340 337 341 346 348 345 341 339 337 336 336 336 337 336 336 334 334 330 327 332 335 333 337 333 329 338 339 333 330 334 336 337 336 335 333 331 330
320 324 328 330 334 336 338 341 342 344 343 340 338 337 335 336 336 337 336 336 336 335 335 335 333 333 326 321 319 322 330 329 333 335 333 333 334 335 334 332 331 332 330 327
322 323 326 328 333 336 338 342 342 341 338 337 337 335 337 336 334 333 333 334 334 334 334 334 334 329 335 328 332 335 335 335 335 335 334 336 333 335 334 332 328 326 326 324
321 323 325 326 331 336 336 341 339 338 338 336 335 335 334 334 332 332 332 333 334 334 333 335 335 335 334 333 334 332 330 328 332 332 331 331 331 331 331 330 326 323 319 319
321 323 323 326 331 333 335 338 337 337 334 333 333 333 333 331 332 332 333 332 334 336 336 335 333 327 331 331 332 331 333 330 328 331 332 331 330 330 331 330 326 322 321 319
323 323 328 331 332 334 340 336 334 334 334 332 331 330 332 331 331 332 332 333 334 335 335 332 327 332 331 328 327 329 328 332 329 329 330 329 329 330 329 329 326 323 322 320
325 327 330 334 332 335 334 332 332 332 332 333 334 333 332 331 330 330 331 333 333 334 332 322 327 332 325 321 327 329 327 327 328 328 328 329 329 329 329 328 327 323 321 319
330 333 333 332 332 332 333 332 333 333 333 333 332 332 332 331 331 330 332 335 334 333 329 322 331 331 331 327 320 326 328 327 328 328 327 329 328 327 327 327 327 323 321 319
328 328 329 329 329 329 329 330 330 330 331 332 332 333 333 331 332 331 332 335 333 331 326 327 328 327 329 325 326 328 328 328 328 328 327 326 328 328 328 328 325 323 322 320
325 326 326 327 327 327 328 329 329 329 330 330 330 330 331 330 330 330 333 333 331 327 329 329 326 326 323 323 328 327 327 326 326 326 326 325 326 327 326 326 324 322 321 320
321 321 324 324 323 324 325 326 326 327 329 329 330 329 330 329 329 331 331 332 330 327 328 328 326 324 320 326 326 326 325 324 325 325 325 324 326 327 326 324 323 322 321 317
317 316 316 318 319 322 323 324 325 326 325 325 326 327 326 327 328 328 329 328 328 327 327 326 323 321 324 324 325 325 323 323 324 323 323 325 323 324 323 323 322 321 318 315
317 319 319 318 318 319 322 323 323 323 323 323 323 323 324 325 325 325 327 327 326 325 323 322 319 321 322 321 321 323 321 321 322 322 322 322 321 322 322 321 320 318 315 315
320 321 318 317 317 318 317 319 321 322 322 322 322 322 323 323 325 326 325 324 324 323 321 321 320 321 321 320 319 319 318 316 317 319 319 320 320 320 319 318 318 318 317 316
Wind_Speed
27 28 25 24 24 26 26 22 21 18 22 16 14 8 13 18 17 13 11 11 12 11 11 12 22 36 40 39 38 39 40 40 41 37 35 32 31 30 27 24 24 25 26 26
24 25 28 27 23 27 27 26 24 23 22 18 21 23 16 13 16 14 11 12 8 10 12 15 16 26 31 31 35 36 37 39 36 33 31 31 28 23 22 24 22 24 26 21
19 22 23 23 26 23 24 24 23 22 19 18 18 11 9 10 15 20 19 18 14 21 20 21 24 24 28 28 28 32 36 36 33 31 27 23 24 23 24 24 24 23 21 20
14 15 25 17 22 25 24 18 21 18 18 14 11 18 22 17 10 10 10 9 12 4 18 21 25 28 26 28 32 30 32 32 29 27 24 25 26 25 23 21 18 17 16 14
13 18 13 23 16 22 23 23 18 15 13 14 17 20 22 15 10 8 10 13 14 9 9 20 21 23 24 25 28 30 29 26 23 24 26 23 21 19 15 16 15 15 12 13
14 21 27 14 20 7 6 15 15 16 11 13 14 12 9 11 14 17 19 19 17 13 11 21 19 21 23 22 22 22 21 23 27 25 20 19 18 14 13 10 10 10 10 12
13 15 16 12 19 20 16 6 7 13 19 19 13 12 11 18 17 8 8 15 12 10 18 18 20 22 22 22 21 21 24 26 24 22 20 19 16 15 17 19 18 15 16 14
12 16 17 13 17 12 9 13 7 9 7 5 18 14 24 12 7 5 7 8 11 14 16 17 19 22 23 20 22 24 21 21 19 18 18 17 18 18 13 16 13 16 12 14
12 12 6 12 11 16 17 6 10 14 10 8 6 6 11 14 12 13 14 16 17 20 21 20 20 21 25 25 25 23 20 21 21 19 13 13 12 10 16 13 10 12 13 18
20 17 17 19 22 22 18 18 6 8 11 10 11 11 13 13 13 15 18 19 20 21 21 22 22 27 30 28 25 24 24 22 17 18 16 16 10 11 12 15 15 14 18 19
17 13 27 23 36 32 27 23 20 9 10 10 7 11 12 14 18 19 19 20 22 24 24 24 23 23 26 25 22 21 19 18 16 15 14 16 17 15 17 16 14 15 16 17
3 17 17 13 19 23 31 30 30 14 10 7 6 13 17 20 22 23 22 22 23 23 23 22 22 22 21 20 20 19 18 17 15 14 15 16 19 21 19 16 16 16 14 14
15 24 23 21 22 19 20 24 30 14 13 9 14 21 21 22 22 25 24 24 23 22 22 22 23 22 19 20 18 15 13 12 10 10 11 17 18 18 15 15 11 11 9 9
27 29 25 17 24 26 29 28 13 10 14 18 20 23 25 27 28 27 25 24 24 23 21 21 19 20 20 19 16 16 12 11 13 13 14 11 12 15 14 14 10 12 12 9
27 21 21 25 25 28 24 14 13 19 20 25 26 26 26 28 27 26 27 26 23 22 20 19 17 15 11 10 9 9 9 11 10 10 7 9 9 9 7 10 9 9 12 12
24 22 20 24 26 32 28 12 19 21 25 24 25 27 27 28 28 27 23 22 22 20 18 17 14 12 10 8 11 9 6 11 8 12 7 10 7 6 12 15 11 7 12 15
25 22 21 26 27 25 29 19 25 24 22 24 26 28 28 26 25 23 21 19 20 18 17 15 13 10 6 8 10 6 4 11 10 9 8 10 11 8 8 12 11 6 10 11
23 24 24 28 30 28 31 20 25 26 26 25 25 25 25 25 24 22 20 20 19 16 15 14 11 10 8 7 9 6 8 6 8 7 14 13 9 12 11 14 17 14 15 8
23 26 24 24 27 30 24 32 32 29 25 24 23 23 22 21 22 20 19 20 19 19 15 12 10 8 7 7 12 6 5 10 7 4 12 8 8 9 10 12 17 18 22 17
22 23 18 7 11 12 19 32 31 26 24 23 22 21 20 19 19 18 18 15 15 15 13 11 9 5 3 8 12 6 7 6 5 6 9 9 10 16 13 10 18 22 18 15
12 15 28 31 30 31 27 29 25 22 20 19 19 19 18 17 17 18 18 13 14 14 12 10 10 6 4 2 11 3 6 8 5 7 8 9 5 8 9 15 19 18 14 17
26 30 34 34 31 27 22 20 18 15 14 14 14 16 16 15 15 14 10 12 17 16 9 8 9 8 7 6 5 3 6 6 5 4 5 4 6 11 14 17 20 20 22 20
36 33 35 33 29 26 22 17 15 14 13 12 12 13 12 13 12 13 10 14 14 17 8 15 9 7 6 11 5 5 3 3 3 3 4 7 9 9 13 20 14 14 17 14
39 36 31 29 27 18 17 16 10 13 15 14 11 13 10 10 9 6 13 15 14 16 8 10 7 5 10 8 6 7 6 5 7 6 6 6 9 12 15 20 17 17 15 16
33 31 28 24 19 17 17 15 13 12 12 12 13 12 7 12 9 9 9 10 13 10 11 8 6 13 14 6 11 12 5 5 6 8 8 12 8 10 13 11 12 16 16 18
29 24 17 14 12 17 7 10 10 9 11 13 12 10 8 5 5 4 6 8 13 10 5 10 15 15 6 5 7 12 8 8 7 8 9 11 14 12 13 13 14 14 14 14
14 11 16 14 14 12 12 11 10 11 9 10 10 7 6 6 7 8 8 8 8 11 9 11 10 7 7 8 7 8 6 6 7 9 9 11 13 11 17 16 15 12 13 14
Wind_Direction
227 250 239 203 210 221 236 235 234 237 245 252 261 245 198 200 187 219 206 212 204 230 255 255 221 207 206 210 212 211 213 221 228 233 237 234 234 239 240 240 235 233 234 257
236 233 247 257 228 213 224 235 246 244 252 253 230 255 248 182 187 200 224 242 233 215 235 228 217 209 206 210 210 211 213 216 222 230 233 230 231 227 224 228 230 235 246 241
234 232 247 248 244 230 214 226 237 241 246 253 261 267 269 242 233 202 213 229 244 231 223 221 219 218 204 201 206 212 212 213 219 223 225 222 217 216 218 218 224 232 236 228
232 226 235 252 240 248 255 239 217 237 245 239 247 274 274 268 245 274 242 239 284 291 220 229 223 223 214 210 206 205 205 206 214 219 213 210 217 219 215 225 227 227 220 223
235 227 247 248 247 235 237 246 255 226 231 244 243 253 256 265 274 256 260 254 261 248 256 232 218 214 206 200 204 201 200 205 202 205 204 211 211 211 212 219 219 225 202 213
215 228 225 220 223 136 336 241 237 251 248 247 241 248 257 262 270 271 265 268 257 255 247 204 200 200 190 189 185 185 183 184 193 199 192 190 194 196 196 205 199 205 187 184
224 227 244 248 248 257 244 257 249 246 236 238 245 258 274 237 242 247 248 228 224 196 182 187 190 191 178 177 174 176 185 191 195 182 186 182 168 178 186 175 179 192 212 199
230 240 240 248 266 268 356 354 317 277 264 356 244 265 242 216 181 172 145 156 161 164 173 173 177 172 169 181 176 178 189 175 167 172 164 173 175 179 204 207 185 188 192 184
236 233 289 299 324 315 307 291 348 8 6 342 343 61 119 138 143 149 152 146 152 153 146 153 165 176 163 161 161 168 166 153 165 162 167 178 196 182 172 183 182 196 211 216
240 254 260 277 279 287 292 309 337 324 329 322 301 177 143 142 144 140 137 134 136 134 142 154 167 157 153 152 165 166 162 166 171 160 155 165 173 171 170 195 195 213 223 220
249 246 251 255 248 270 282 287 295 283 296 290 268 140 144 140 136 132 131 131 134 138 135 136 147 155 164 162 160 158 160 155 154 150 161 175 179 188 197 203 217 219 215 225
273 2 340 301 266 258 262 263 268 285 283 267 188 146 143 133 131 130 130 132 132 134 135 138 145 144 145 148 156 158 152 154 156 168 180 190 195 195 195 220 214 227 219 223
317 327 322 319 319 290 289 280 252 250 254 187 154 147 145 138 137 136 132 136 137 133 133 136 138 140 141 145 138 132 150 165 165 175 189 196 205 217 214 206 206 218 208 193
297 310 312 317 316 308 302 291 211 203 156 148 141 143 140 141 137 136 136 139 140 138 134 134 139 142 147 151 162 164 169 173 186 195 199 224 232 229 222 204 207 193 191 198
277 281 278 299 302 301 296 268 162 151 152 145 145 142 147 139 139 137 137 137 138 139 142 142 142 143 148 148 149 140 133 137 127 164 141 149 181 205 188 173 178 201 206 192
286 283 286 291 293 297 283 215 177 162 150 151 149 148 147 142 137 140 140 143 140 140 138 137 138 135 130 131 114 137 149 168 156 149 147 162 147 149 173 168 187 202 188 185
283 286 281 287 289 285 297 213 159 152 161 158 154 146 140 141 139 142 139 147 149 142 134 132 125 123 124 123 143 166 140 184 174 159 159 178 181 194 194 179 172 182 175 190
267 271 279 275 287 280 292 171 155 157 156 151 146 146 148 146 145 143 147 142 140 137 140 143 145 139 143 157 153 176 180 163 183 198 198 185 173 179 201 171 177 165 179 181
263 277 275 280 283 278 266 159 151 146 144 145 149 154 150 147 146 149 151 151 151 147 149 159 140 134 158 169 160 167 189 180 156 155 166 183 181 185 191 183 176 181 193 185
268 271 285 279 159 158 141 125 128 135 145 153 145 139 140 144 150 152 154 160 177 182 169 147 134 151 146 159 167 160 179 187 189 204 178 156 137 151 159 170 187 182 186 178
243 169 148 127 108 116 110 114 122 128 133 139 146 145 142 144 146 151 156 144 150 157 152 141 145 182 151 149 175 186 216 177 143 131 168 165 172 206 208 191 176 173 168 162
115 105 111 116 108 103 104 109 114 120 132 145 148 148 142 147 153 156 181 181 168 159 152 154 175 195 154 167 156 166 137 128 129 144 149 202 171 189 185 176 165 173 186 187
91 91 89 93 92 92 97 108 111 120 122 142 145 138 152 160 165 181 164 167 162 161 164 180 193 200 212 169 166 169 167 140 162 192 201 206 206 187 168 163 164 180 179 185
74 74 72 83 89 103 108 98 121 148 136 133 134 142 128 149 147 105 152 159 164 173 178 186 198 226 185 163 167 162 165 175 164 183 183 187 171 176 169 171 168 166 178 178
84 82 76 78 82 78 87 90 93 98 106 123 111 103 106 116 130 147 159 165 171 167 200 190 195 165 156 168 190 174 146 136 156 150 128 149 140 152 169 169 174 169 185 164
88 88 94 89 98 88 110 117 100 134 147 120 104 97 93 101 132 119 151 155 171 152 173 172 161 159 137 160 165 162 152 146 151 174 163 167 162 162 171 172 178 187 171 163
88 96 107 114 106 121 124 130 152 147 116 107 93 107 96 112 138 132 151 152 155 161 156 156 167 164 172 175 161 159 159 167 161 166 176 173 184 184 182 179 180 168 182 181